Regional Weather Roundup
Issued by NWS

Home | Current Version | Previous Version | Graphics & Text | Print | Product List | Glossary On
Versions: 1 2 3 4 5 6 7 8 9 10 11 12 13 14 15 16 17 18 19 20 21 22 23 24 25 26 27 28 29 30 31 32 33 34 35 36 37 38 39 40 41 42 43 44 45 46 47 48 49 50
000
ASUS43 KLOT 301221
RWRIL

ILLINOIS REGIONAL WEATHER ROUNDUP
NATIONAL WEATHER SERVICE CHICAGO/ROMEOVILLE IL
700 AM CDT SAT MAY 30 2015

NOTE: "FAIR" INDICATES FEW OR NO CLOUDS BELOW 12,000 FEET WITH NO
SIGNIFICANT WEATHER AND/OR OBSTRUCTIONS TO VISIBILITY.

* THESE STATIONS ARE NOT UNDER NWS QUALITY CONTROL. THEY ALSO MAY NOT
  REPORT WEATHER SUCH AS PRECIPITATION OR FOG.

ILZ001-002-007-009-015-016-024-301300-
NORTHWEST ILLINOIS

CITY           SKY/WX    TMP DP  RH WIND       PRES   REMARKS
MOLINE         CLOUDY    66  63  90 SW5       29.96R
6HR MIN TEMP:  66; 6HR MAX TEMP:  68; 6HR PCP:  0.05;

STERLING*      CLOUDY    64  63  94 SW6       29.97S
SAVANNA*       CLOUDY    68  64  88 SW7       29.96R
$$

ILZ003-004-008-010-011-017-018-301300-
NORTH CENTRAL ILLINOIS

CITY           SKY/WX    TMP DP  RH WIND       PRES   REMARKS
ROCKFORD       LGT RAIN  66  63  90 S5        29.98R
6HR MIN TEMP:  65; 6HR MAX TEMP:  69; 6HR PCP:  0.06;

FREEPORT*      LGT RAIN  64  63  95 SW6       29.98R
ROCHELLE*      RAIN      64  63  96 SW7       29.98S
DE KALB*       LGT RAIN  64  62  94 CALM      29.99S
PERU*          LGT RAIN  66  64  94 W3        29.98S
$$

ILZ005-006-012>014-019>023-301300-
NORTHEAST ILLINOIS

CITY           SKY/WX    TMP DP  RH WIND       PRES   REMARKS
CHICAGO-OHARE  LGT RAIN  68  65  90 W5        29.97R FOG
6HR MIN TEMP:  67; 6HR MAX TEMP:  71; 6HR PCP:  0.02;

CHICAGO-MIDWAY CLOUDY    71  67  87 W5        29.97S
6HR MIN TEMP:  70; 6HR MAX TEMP:  73; 6HR PCP:  0.05;

AURORA         LGT RAIN  67  62  84 W6        29.98R
6HR MIN TEMP:  67; 6HR MAX TEMP:  70; 6HR PCP:  0.04;

LANSING*       CLOUDY    68  65  92 CALM      29.98S FOG
JOLIET*        RAIN      69  68  95 CALM      29.98R
WAUKEGAN       LGT RAIN  67  64  90 CALM      29.97R
6HR MIN TEMP:  65; 6HR MAX TEMP:  70; 6HR PCP:  0.01;

DUPAGE AIRPORT LGT RAIN  67  64  90 NW3       29.97R FOG
6HR MIN TEMP:  67; 6HR MAX TEMP:  70; 6HR PCP:  0.02;

KANKAKEE*      RAIN      67  65  94 SW5       30.01R
WHEELING       LGT RAIN  68  64  87 SW5       29.99R
6HR MIN TEMP:  68; 6HR MAX TEMP:  71; 6HR PCP:  0.01;

MORRIS*        LGT RAIN  67  65  94 CALM      29.96S
ROMEOVILLE*    LGT RAIN  67  65  93 W6        29.98S
NORTHERLY ISL    N/A     69  65  86 W5          N/A
$$

LMZ740>746-301300-
SOUTHERN LAKE MICHIGAN

STATION/POSITION SKY/WX   TEMP    WIND        PRES    VSBY  WAVE
                          AIR SEA DIR/SP/G                  HT/PER
                          (F)     (DEG/KT/KT) (MB)    (MI)  (FT/S)
SOUTHERN BUOY              49 38  230/  2/  4 1015.2R         1
HARRISON CRIB              68     280/  4/  5   N/A
BURNHAM HARBOR             69     270/  4/  7   N/A
CALUMET HARBOR             68     210/  3/  5   N/A
BURNS HARBOR               68     250/  5/  9 1015.2S
MICHIGAN CITY              67     200/  7/  8   N/A
MICHIGAN CITY 6N           63 56  210/  4/  6   N/A           1
ST. JOSEPH                 60 58  240/  4/  4   N/A           1
$$

ILZ025>027-034>036-040-047-049-050-058-095>099-301300-
WEST-CENTRAL ILLINOIS

CITY           SKY/WX    TMP DP  RH WIND       PRES   REMARKS
QUINCY         LGT RAIN  66  64  93 CALM      29.97R
GALESBURG*     DRIZZLE   64  63  97 CALM      29.97F
MACOMB*        LGT RAIN  64  64  99 CALM      29.99S
JACKSONVILLE*  DRIZZLE   67  65  94 CALM      29.97R
PITTSFIELD*    DRIZZLE   66  64  93 CALM      29.98F
$$

ILZ028>032-037-038-041>044-048-051>054-059>061-301300-
CENTRAL ILLINOIS

CITY           SKY/WX    TMP DP  RH WIND       PRES   REMARKS
PONTIAC        LGT RAIN  67  66  97 CALM      29.99R
BLOOMINGTON    CLOUDY    66  66 100 E5        29.99S
DECATUR        LGT RAIN  67  65  93 NE5       29.99S
PEORIA         CLOUDY    68  64  87 CALM      29.98R
6HR MIN TEMP:  67; 6HR MAX TEMP:  73; 6HR PCP:  0.39;

LACON*         CLOUDY    66  64  91 CALM      29.97S
LINCOLN*       LGT RAIN  67  65  95 CALM      29.96R
SPRINGFIELD    LGT RAIN  68  65  90 E7        29.98S
6HR MIN TEMP:  67; 6HR MAX TEMP:  72; 6HR PCP:  0.77;

TAYLORVILLE    RAIN      64  64 100 NE5       29.97S
$$

ILZ033-039-045-046-055>057-062-063-301300-
EAST-CENTRAL ILLINOIS

CITY           SKY/WX    TMP DP  RH WIND       PRES   REMARKS
CHAMPAIGN      LGT RAIN  68  66  93 CALM      29.99S
DANVILLE*      LGT RAIN  66  65  97 CALM      29.98S
RANTOUL*       CLOUDY    68  67  96 E6        29.99F
MATTOON        CLOUDY    69  67  93 SE6       29.98R
PARIS*         CLOUDY    69  65  88 NE3       30.01S
$$

ILZ079-100>102-301300-
SOUTHWEST ILLINOIS

CITY           SKY/WX    TMP DP  RH WIND       PRES   REMARKS
ALTON          CLOUDY    68  68 100 NW5       29.96R FOG
BELLEVILLE     CLOUDY    68  68 100 CALM      29.94S FOG
CAHOKIA*       CLOUDY    70  68  93 E3        29.94F
SPARTA*        CLOUDY    69  68  98 CALM      29.97R
$$

ILZ064>066-069>071-074>076-080>082-084>086-088>090-092>094-301300-
SOUTH-CENTRAL ILLINOIS

CITY           SKY/WX    TMP DP  RH WIND       PRES   REMARKS
CARBONDALE     PTSUNNY   72  69  90 S5        29.97R
6HR MIN TEMP:  68; 6HR MAX TEMP:  72;

CAIRO*         CLOUDY    73  68  83 S9        29.98R
EFFINGHAM*     PTSUNNY   70  66  88 SE7       29.99R
MARION         PTSUNNY   73  70  88 S8        29.98S
MT. VERNON     MOSUNNY   72  66  83 S6        29.98R
CENTRALIA*     CLOUDY    72  68  88 S6        29.96S
SALEM*         PTSUNNY   72  68  87 S6        29.96S
METROPOLIS*    CLOUDY    73  72  95 S5        29.99R
$$

ILZ067-068-072-073-078-083-087-091-301300-
SOUTHEAST ILLINOIS

CITY           SKY/WX    TMP DP  RH WIND       PRES   REMARKS
LAWRENCEVILLE  SUNNY     72  67  84 S12       29.99S
FLORA*         MOSUNNY   70  68  93 S6        29.98S
FAIRFIELD*     CLOUDY    72  68  87 SE6       29.96F
HARRISBURG*    PTSUNNY   73  69  86 S8        29.99S
ROBINSON*      SUNNY     72  67  87 S8        30.00S
CARMI*         SUNNY     73  64  73 S8        29.98S
$$

ABBREVIATIONS USED IN REMARKS
   TC - TEMPERATURE IN CELSIUS
  WCI - WIND CHILL INDEX
   HX - HEAT INDEX
  VSB - VISIBILITY
$$



USA.gov is the U.S. government's official web portal to all federal, state and local government web resources and services.